START_TIME,STEP,MOV.,AL01,t_acc.,AL02,t_acc.,E37,t_acc.,H21,t_acc.
1979-07-12 03:00:34.710 ,1,0,7.,24.0,0.,24.0,0.,24.0,0.,24.0
1979-07-12 03:00:58.710 ,2,1,6.,24.0,1.,24.0,0.,24.0,0.,24.0
1979-07-12 03:01:22.710 ,2,0,7.,24.0,2.,24.0,0.,24.0,0.,24.0
1979-07-12 03:01:46.710 ,3,1,5.,24.0,1.,24.0,0.,24.0,0.,24.0
1979-07-12 03:02:10.710 ,3,0,7.,24.0,2.,24.0,0.,24.0,0.,24.0
1979-07-12 03:02:34.710 ,4,1,7.,24.0,2.,24.0,0.,24.0,0.,24.0
1979-07-12 03:02:58.710 ,4,0,8.,24.0,0.,24.0,0.,24.0,0.,24.0
1979-07-12 03:03:22.710 ,5,1,9.,24.0,3.,24.0,0.,24.0,0.,24.0
1979-07-12 03:03:46.710 ,5,0,12.,24.0,4.,24.0,0.,24.0,0.,24.0
1979-07-12 03:04:10.710 ,6,1,8.,24.0,2.,24.0,0.,24.0,0.,24.0
1979-07-12 03:04:34.710 ,6,0,11.,24.0,4.,24.0,0.,24.0,0.,24.0
1979-07-12 03:04:58.710 ,7,1,18.,24.0,0.,24.0,0.,24.0,0.,24.0
1979-07-12 03:05:22.710 ,7,0,41.,24.0,0.,24.0,0.,24.0,0.,24.0
1979-07-12 03:05:46.700 ,7,1,27.,24.0,0.,24.0,0.,24.0,0.,24.0
1979-07-12 03:06:10.700 ,7,0,25.,24.0,0.,24.0,0.,24.0,0.,24.0
1979-07-12 03:06:34.700 ,6,1,22.,24.0,0.,24.0,0.,24.0,0.,24.0
1979-07-12 03:06:58.700 ,6,0,6.,24.0,3.,24.0,0.,24.0,0.,24.0
1979-07-12 03:07:22.700 ,5,1,9.,24.0,3.,24.0,0.,24.0,0.,24.0
1979-07-12 03:07:46.700 ,5,0,7.,24.0,3.,24.0,0.,24.0,0.,24.0
1979-07-12 03:08:10.700 ,4,1,10.,24.0,0.,24.0,0.,24.0,0.,24.0
1979-07-12 03:08:34.700 ,4,0,5.,24.0,1.,24.0,0.,24.0,0.,24.0
1979-07-12 03:08:58.700 ,3,1,2.,24.0,4.,24.0,0.,24.0,0.,24.0
1979-07-12 03:09:22.700 ,3,0,10.,24.0,1.,24.0,0.,24.0,0.,24.0
1979-07-12 03:09:46.700 ,2,1,2.,24.0,0.,24.0,0.,24.0,0.,24.0
1979-07-12 03:10:10.700 ,2,0,5.,24.0,0.,24.0,0.,24.0,0.,24.0
1979-07-12 03:10:34.700 ,1,1,7.,24.0,0.,24.0,0.,24.0,0.,24.0
1979-07-12 03:10:58.700 ,1,0,7.,24.0,1.,24.0,0.,24.0,0.,24.0
1979-07-12 03:11:22.700 ,0,1,6.,24.0,2.,24.0,0.,24.0,0.,24.0
1979-07-12 03:11:46.700 ,0,0,5.,24.0,0.,24.0,0.,24.0,0.,24.0
1979-07-12 03:12:10.700 ,0,1,5.,24.0,1.,24.0,0.,24.0,0.,24.0
1979-07-12 03:12:34.700 ,0,0,3.,24.0,4.,24.0,0.,24.0,0.,24.0
1979-07-12 03:12:58.700 ,1,1,5.,24.0,2.,24.0,0.,24.0,0.,24.0
1979-07-12 03:13:22.700 ,1,0,3.,24.0,0.,24.0,0.,24.0,0.,24.0
1979-07-12 03:13:46.700 ,2,1,8.,24.0,2.,24.0,0.,24.0,0.,24.0
1979-07-12 03:14:10.700 ,2,0,5.,24.0,1.,24.0,0.,24.0,0.,24.0
1979-07-12 03:14:34.700 ,3,1,7.,24.0,4.,24.0,0.,24.0,0.,24.0
1979-07-12 03:14:58.700 ,3,0,4.,24.0,3.,24.0,0.,24.0,0.,24.0
1979-07-12 03:15:22.700 ,4,1,7.,24.0,0.,24.0,0.,24.0,0.,24.0
1979-07-12 03:15:46.700 ,4,0,5.,24.0,2.,24.0,0.,24.0,0.,24.0
1979-07-12 03:16:10.700 ,5,1,10.,24.0,1.,24.0,0.,24.0,0.,24.0
1979-07-12 03:16:34.700 ,5,0,7.,24.0,0.,24.0,0.,24.0,0.,24.0
1979-07-12 03:16:58.700 ,6,1,6.,24.0,1.,24.0,0.,24.0,0.,24.0
1979-07-12 03:17:22.700 ,6,0,7.,24.0,0.,24.0,0.,24.0,0.,24.0
1979-07-12 03:17:46.700 ,7,1,10.,24.0,2.,24.0,0.,24.0,0.,24.0
1979-07-12 03:18:10.700 ,7,0,34.,24.0,0.,24.0,0.,24.0,0.,24.0
1979-07-12 03:18:34.700 ,7,1,27.,24.0,0.,24.0,0.,24.0,0.,24.0
1979-07-12 03:18:58.700 ,7,0,40.,24.0,0.,24.0,0.,24.0,0.,24.0
1979-07-12 03:19:22.700 ,6,1,22.,24.0,1.,24.0,0.,24.0,0.,24.0
1979-07-12 03:19:46.700 ,6,0,11.,24.0,1.,24.0,0.,24.0,0.,24.0
1979-07-12 03:20:10.700 ,5,1,10.,24.0,1.,24.0,0.,24.0,0.,24.0
1979-07-12 03:20:34.700 ,5,0,4.,24.0,1.,24.0,0.,24.0,0.,24.0
1979-07-12 03:20:58.700 ,4,1,7.,24.0,0.,24.0,0.,24.0,0.,24.0
1979-07-12 03:21:22.700 ,4,0,9.,24.0,2.,24.0,0.,24.0,0.,24.0
1979-07-12 03:21:46.700 ,3,1,3.,24.0,1.,24.0,0.,24.0,0.,24.0
1979-07-12 03:22:10.700 ,3,0,4.,24.0,0.,24.0,0.,24.0,0.,24.0
1979-07-12 03:22:34.700 ,2,1,6.,24.0,1.,24.0,0.,24.0,0.,24.0
1979-07-12 03:22:58.700 ,2,0,1.,24.0,1.,24.0,0.,24.0,0.,24.0
1979-07-12 03:23:22.700 ,1,1,5.,24.0,2.,24.0,0.,24.0,0.,24.0
1979-07-12 03:23:46.700 ,1,0,12.,24.0,0.,24.0,0.,24.0,0.,24.0
1979-07-12 03:24:10.700 ,0,1,2.,24.0,1.,24.0,0.,24.0,0.,24.0
1979-07-12 03:24:34.700 ,0,0,5.,24.0,0.,24.0,0.,24.0,0.,24.0
1979-07-12 03:24:58.700 ,0,1,2.,24.0,0.,24.0,0.,24.0,0.,24.0
1979-07-12 03:25:22.700 ,0,0,3.,24.0,1.,24.0,0.,24.0,0.,24.0
1979-07-12 03:25:46.700 ,1,1,1.,24.0,0.,24.0,0.,24.0,0.,24.0
1979-07-12 03:26:10.700 ,1,0,3.,24.0,0.,24.0,0.,24.0,0.,24.0
1979-07-12 03:26:34.700 ,2,1,2.,24.0,0.,24.0,0.,24.0,0.,24.0
1979-07-12 03:26:58.700 ,2,0,3.,24.0,1.,24.0,0.,24.0,0.,24.0
1979-07-12 03:27:22.700 ,3,1,5.,24.0,1.,24.0,0.,24.0,0.,24.0
1979-07-12 03:27:46.700 ,3,0,0.,24.0,1.,24.0,0.,24.0,0.,24.0
1979-07-12 03:28:10.700 ,4,1,6.,24.0,2.,24.0,0.,24.0,0.,24.0
1979-07-12 03:28:34.700 ,4,0,6.,24.0,1.,24.0,0.,24.0,0.,24.0
1979-07-12 03:28:58.700 ,5,1,7.,24.0,2.,24.0,0.,24.0,0.,24.0
1979-07-12 03:29:22.700 ,5,0,5.,24.0,0.,24.0,0.,24.0,0.,24.0
1979-07-12 03:29:46.700 ,6,1,6.,24.0,1.,24.0,0.,24.0,0.,24.0
1979-07-12 03:30:10.700 ,6,0,4.,24.0,1.,24.0,0.,24.0,0.,24.0
1979-07-12 03:30:34.700 ,7,0,8.,24.0,0.,24.0,0.,24.0,0.,24.0
1979-07-12 03:30:58.700 ,7,0,30.,24.0,0.,24.0,0.,24.0,0.,24.0
1979-07-12 03:31:22.700 ,5,1,20.,24.0,0.,24.0,0.,24.0,0.,24.0
1979-07-12 03:31:46.700 ,1,1,6.,24.0,1.,24.0,0.,24.0,0.,24.0
1979-07-12 03:32:10.700 ,2,1,5.,24.0,0.,24.0,0.,24.0,0.,24.0
1979-07-12 03:32:34.700 ,6,1,10.,24.0,1.,24.0,0.,24.0,0.,24.0
1979-07-12 03:32:58.700 ,5,1,23.,24.0,0.,24.0,0.,24.0,0.,24.0
1979-07-12 03:33:22.700 ,1,1,7.,24.0,0.,24.0,0.,24.0,0.,24.0
1979-07-12 03:33:46.700 ,2,1,10.,24.0,1.,24.0,0.,24.0,0.,24.0
1979-07-12 03:34:10.700 ,6,1,3.,24.0,0.,24.0,0.,24.0,0.,24.0
1979-07-12 03:34:34.700 ,5,1,20.,24.0,0.,24.0,0.,24.0,0.,24.0
1979-07-12 03:34:58.700 ,1,1,5.,24.0,0.,24.0,0.,24.0,0.,24.0
1979-07-12 03:35:22.700 ,2,1,4.,24.0,0.,24.0,0.,24.0,0.,24.0
1979-07-12 03:35:46.700 ,6,1,6.,24.0,2.,24.0,0.,24.0,0.,24.0
1979-07-12 03:36:10.700 ,5,1,21.,24.0,0.,24.0,0.,24.0,0.,24.0
1979-07-12 03:36:34.700 ,1,1,3.,24.0,1.,24.0,0.,24.0,0.,24.0
1979-07-12 03:36:58.700 ,2,1,2.,24.0,2.,24.0,0.,24.0,0.,24.0
1979-07-12 03:37:22.700 ,6,1,9.,24.0,1.,24.0,0.,24.0,0.,24.0
1979-07-12 03:37:46.700 ,5,1,22.,24.0,1.,24.0,0.,24.0,0.,24.0
1979-07-12 03:38:10.700 ,1,1,5.,24.0,0.,24.0,0.,24.0,0.,24.0
1979-07-12 03:38:34.700 ,2,1,4.,24.0,2.,24.0,0.,24.0,0.,24.0
1979-07-12 03:38:58.700 ,6,1,8.,24.0,1.,24.0,0.,24.0,0.,24.0
1979-07-12 03:39:22.700 ,5,1,22.,24.0,0.,24.0,0.,24.0,0.,24.0
1979-07-12 03:39:46.700 ,1,1,1.,24.0,0.,24.0,0.,24.0,0.,24.0
1979-07-12 03:40:10.700 ,2,1,1.,24.0,0.,24.0,0.,24.0,0.,24.0
1979-07-12 03:40:34.700 ,6,1,3.,24.0,2.,24.0,0.,24.0,0.,24.0
1979-07-12 03:40:58.700 ,5,1,16.,24.0,0.,24.0,0.,24.0,0.,24.0
1979-07-12 03:41:22.700 ,1,1,7.,24.0,0.,24.0,0.,24.0,0.,24.0
1979-07-12 03:41:46.700 ,0,0,1.,24.0,2.,24.0,0.,24.0,0.,24.0
1979-07-12 03:42:10.700 ,0,0,3.,24.0,2.,24.0,0.,24.0,0.,24.0
1979-07-12 03:42:34.700 ,5,1,13.,24.0,0.,24.0,0.,24.0,0.,24.0
1979-07-12 03:42:58.700 ,5,0,2.,24.0,0.,24.0,0.,24.0,0.,24.0
1979-07-12 03:43:22.700 ,4,1,1.,24.0,1.,24.0,0.,24.0,0.,24.0
1979-07-12 03:43:46.700 ,4,0,5.,24.0,1.,24.0,0.,24.0,0.,24.0
1979-07-12 03:44:10.700 ,3,1,2.,24.0,0.,24.0,0.,24.0,0.,24.0
1979-07-12 03:44:34.700 ,3,0,1.,24.0,0.,24.0,0.,24.0,0.,24.0
1979-07-12 03:44:58.700 ,2,1,3.,24.0,0.,24.0,0.,24.0,0.,24.0
1979-07-12 03:45:22.700 ,2,0,1.,24.0,1.,24.0,0.,24.0,0.,24.0
1979-07-12 03:45:46.700 ,1,1,4.,24.0,0.,24.0,0.,24.0,0.,24.0
1979-07-12 03:46:10.700 ,1,0,0.,24.0,0.,24.0,0.,24.0,0.,24.0
1979-07-12 03:46:34.700 ,0,1,1.,24.0,0.,24.0,0.,24.0,0.,24.0
1979-07-12 03:46:58.700 ,0,0,0.,24.0,0.,24.0,0.,24.0,0.,24.0
1979-07-12 03:47:22.700 ,0,1,1.,24.0,0.,24.0,0.,24.0,0.,24.0
1979-07-12 03:47:46.700 ,0,0,3.,24.0,0.,24.0,0.,24.0,0.,24.0
1979-07-12 03:48:10.700 ,1,1,0.,24.0,0.,24.0,0.,24.0,0.,24.0
1979-07-12 03:48:34.700 ,1,0,2.,24.0,0.,24.0,0.,24.0,0.,24.0
1979-07-12 03:48:58.700 ,2,1,1.,24.0,0.,24.0,0.,24.0,0.,24.0
1979-07-12 03:49:22.700 ,2,0,2.,24.0,1.,24.0,0.,24.0,0.,24.0
1979-07-12 03:49:46.700 ,3,1,0.,24.0,0.,24.0,0.,24.0,0.,24.0
1979-07-12 03:50:10.700 ,3,0,2.,24.0,0.,24.0,0.,24.0,0.,24.0
1979-07-12 03:50:34.700 ,4,1,5.,24.0,0.,24.0,0.,24.0,0.,24.0
1979-07-12 03:50:58.700 ,4,0,1.,24.0,0.,24.0,0.,24.0,0.,24.0
1979-07-12 03:51:22.700 ,5,1,5.,24.0,0.,24.0,0.,24.0,0.,24.0
1979-07-12 03:51:46.700 ,5,0,3.,24.0,0.,24.0,0.,24.0,0.,24.0
1979-07-12 03:52:10.700 ,6,1,4.,24.0,1.,24.0,0.,24.0,0.,24.0
1979-07-12 03:52:34.700 ,6,0,3.,24.0,0.,24.0,0.,24.0,0.,24.0
1979-07-12 03:52:58.700 ,7,1,9.,24.0,0.,24.0,0.,24.0,0.,24.0
1979-07-12 03:53:22.700 ,7,0,29.,24.0,0.,24.0,0.,24.0,0.,24.0
1979-07-12 03:53:46.700 ,7,1,42.,24.0,0.,24.0,0.,24.0,0.,24.0
1979-07-12 03:54:10.700 ,7,0,32.,24.0,0.,24.0,0.,24.0,0.,24.0
1979-07-12 03:54:34.700 ,6,1,22.,24.0,0.,24.0,0.,24.0,0.,24.0
1979-07-12 03:54:58.700 ,6,0,4.,24.0,0.,24.0,0.,24.0,0.,24.0
1979-07-12 03:55:22.700 ,5,1,2.,24.0,0.,24.0,0.,24.0,0.,24.0
1979-07-12 03:55:46.700 ,5,0,4.,24.0,2.,24.0,0.,24.0,0.,24.0
1979-07-12 03:56:10.700 ,4,1,4.,24.0,1.,24.0,0.,24.0,0.,24.0
1979-07-12 03:56:34.700 ,4,0,4.,24.0,0.,24.0,0.,24.0,0.,24.0
1979-07-12 03:56:58.700 ,3,1,2.,24.0,1.,24.0,0.,24.0,0.,24.0
1979-07-12 03:57:22.700 ,3,0,5.,24.0,0.,24.0,0.,24.0,0.,24.0
1979-07-12 03:57:46.700 ,2,1,3.,24.0,4.,24.0,0.,24.0,0.,24.0
1979-07-12 03:58:10.700 ,2,0,2.,24.0,1.,24.0,0.,24.0,0.,24.0
1979-07-12 03:58:34.700 ,1,1,1.,24.0,0.,24.0,0.,24.0,0.,24.0
1979-07-12 03:58:58.700 ,1,0,4.,24.0,1.,24.0,0.,24.0,0.,24.0
1979-07-12 03:59:22.700 ,0,1,4.,24.0,0.,24.0,0.,24.0,0.,24.0
1979-07-12 03:59:46.700 ,0,0,1.,24.0,0.,24.0,0.,24.0,0.,24.0
1979-07-12 04:00:10.700 ,0,1,2.,24.0,0.,24.0,0.,24.0,0.,24.0
1979-07-12 04:00:34.700 ,0,0,4.,24.0,0.,24.0,0.,24.0,0.,24.0
1979-07-12 04:00:58.700 ,1,1,0.,24.0,0.,24.0,0.,24.0,0.,24.0
1979-07-12 04:01:22.700 ,1,0,4.,24.0,1.,24.0,0.,24.0,0.,24.0
1979-07-12 04:01:46.700 ,2,1,2.,24.0,0.,24.0,0.,24.0,0.,24.0
1979-07-12 04:02:10.700 ,2,0,5.,24.0,0.,24.0,0.,24.0,0.,24.0
1979-07-12 04:02:34.700 ,3,1,1.,24.0,2.,24.0,0.,24.0,0.,24.0
1979-07-12 04:02:58.700 ,3,0,3.,24.0,1.,24.0,0.,24.0,0.,24.0
1979-07-12 04:03:22.700 ,4,1,4.,24.0,2.,24.0,0.,24.0,0.,24.0
1979-07-12 04:03:46.700 ,4,0,5.,24.0,3.,24.0,0.,24.0,0.,24.0
1979-07-12 04:04:10.700 ,5,1,5.,24.0,0.,24.0,0.,24.0,0.,24.0
1979-07-12 04:04:34.700 ,5,0,2.,24.0,2.,24.0,0.,24.0,0.,24.0
1979-07-12 04:04:58.700 ,6,1,1.,24.0,0.,24.0,0.,24.0,0.,24.0
1979-07-12 04:05:22.700 ,6,0,3.,24.0,0.,24.0,0.,24.0,0.,24.0
1979-07-12 04:05:46.700 ,7,1,9.,24.0,1.,24.0,0.,24.0,0.,24.0
1979-07-12 04:06:10.700 ,7,0,33.,24.0,0.,24.0,0.,24.0,0.,24.0
1979-07-12 04:06:34.700 ,7,1,33.,24.0,0.,24.0,0.,24.0,0.,24.0
1979-07-12 04:06:58.700 ,7,0,27.,24.0,0.,24.0,0.,24.0,0.,24.0
1979-07-12 04:07:22.700 ,6,1,20.,24.0,1.,24.0,0.,24.0,0.,24.0
1979-07-12 04:07:46.700 ,6,0,5.,24.0,0.,24.0,0.,24.0,0.,24.0
1979-07-12 04:08:10.700 ,5,1,3.,24.0,0.,24.0,0.,24.0,0.,24.0
1979-07-12 04:08:34.700 ,5,0,1.,24.0,0.,24.0,0.,24.0,0.,24.0
1979-07-12 04:08:58.700 ,4,1,6.,24.0,0.,24.0,0.,24.0,0.,24.0
1979-07-12 04:09:22.700 ,4,0,10.,24.0,1.,24.0,0.,24.0,0.,24.0
1979-07-12 04:09:46.700 ,3,1,5.,24.0,0.,24.0,0.,24.0,0.,24.0
1979-07-12 04:10:10.700 ,3,0,2.,24.0,0.,24.0,0.,24.0,0.,24.0
1979-07-12 04:10:34.700 ,2,1,3.,24.0,0.,24.0,0.,24.0,0.,24.0
1979-07-12 04:10:58.700 ,2,0,4.,24.0,0.,24.0,0.,24.0,0.,24.0
1979-07-12 04:11:22.700 ,1,1,3.,24.0,0.,24.0,0.,24.0,0.,24.0
1979-07-12 04:11:46.700 ,1,0,6.,24.0,0.,24.0,0.,24.0,0.,24.0
1979-07-12 04:12:10.700 ,0,1,6.,24.0,1.,24.0,0.,24.0,0.,24.0
1979-07-12 04:12:34.700 ,0,0,5.,24.0,0.,24.0,0.,24.0,0.,24.0
1979-07-12 04:12:58.700 ,0,1,5.,24.0,2.,24.0,0.,24.0,0.,24.0
1979-07-12 04:13:22.700 ,0,0,2.,24.0,1.,24.0,0.,24.0,0.,24.0
1979-07-12 04:13:46.700 ,1,1,2.,24.0,0.,24.0,0.,24.0,0.,24.0
1979-07-12 04:14:10.700 ,1,0,1.,24.0,1.,24.0,0.,24.0,0.,24.0
1979-07-12 04:14:34.700 ,2,1,8.,24.0,1.,24.0,0.,24.0,0.,24.0
1979-07-12 04:14:58.700 ,2,0,2.,24.0,0.,24.0,0.,24.0,0.,24.0
1979-07-12 04:15:22.700 ,3,1,3.,24.0,1.,24.0,0.,24.0,0.,24.0
1979-07-12 04:15:46.700 ,3,0,5.,24.0,0.,24.0,0.,24.0,0.,24.0
1979-07-12 04:16:10.700 ,4,1,4.,24.0,4.,24.0,0.,24.0,0.,24.0
1979-07-12 04:16:34.700 ,4,0,5.,24.0,1.,24.0,0.,24.0,0.,24.0
1979-07-12 04:16:58.700 ,5,1,7.,24.0,0.,24.0,0.,24.0,0.,24.0
1979-07-12 04:17:22.700 ,5,0,6.,24.0,0.,24.0,0.,24.0,0.,24.0
1979-07-12 04:17:46.700 ,6,1,3.,24.0,1.,24.0,0.,24.0,0.,24.0
1979-07-12 04:18:10.700 ,6,0,8.,24.0,0.,24.0,0.,24.0,0.,24.0
1979-07-12 04:18:34.700 ,7,0,14.,24.0,0.,24.0,0.,24.0,0.,24.0
1979-07-12 04:18:58.700 ,7,0,29.,24.0,0.,24.0,0.,24.0,0.,24.0
1979-07-12 04:19:22.700 ,5,1,23.,24.0,1.,24.0,0.,24.0,0.,24.0
1979-07-12 04:19:46.700 ,1,1,6.,24.0,1.,24.0,0.,24.0,0.,24.0
1979-07-12 04:20:10.700 ,2,1,2.,24.0,0.,24.0,0.,24.0,0.,24.0
1979-07-12 04:20:34.700 ,6,1,6.,24.0,1.,24.0,0.,24.0,0.,24.0
1979-07-12 04:20:58.700 ,5,1,22.,24.0,0.,24.0,0.,24.0,0.,24.0
1979-07-12 04:21:22.700 ,1,1,2.,24.0,1.,24.0,0.,24.0,0.,24.0
1979-07-12 04:21:46.700 ,2,1,2.,24.0,0.,24.0,0.,24.0,0.,24.0
1979-07-12 04:22:10.700 ,6,1,6.,24.0,1.,24.0,0.,24.0,0.,24.0
1979-07-12 04:22:34.700 ,5,1,26.,24.0,0.,24.0,0.,24.0,0.,24.0
1979-07-12 04:22:58.700 ,1,1,6.,24.0,3.,24.0,0.,24.0,0.,24.0
1979-07-12 04:23:22.700 ,2,1,2.,24.0,0.,24.0,0.,24.0,0.,24.0
1979-07-12 04:23:46.700 ,6,1,3.,24.0,1.,24.0,0.,24.0,0.,24.0
1979-07-12 04:24:10.700 ,5,1,16.,24.0,0.,24.0,0.,24.0,0.,24.0
1979-07-12 04:24:34.700 ,1,1,6.,24.0,0.,24.0,0.,24.0,0.,24.0
1979-07-12 04:24:58.700 ,2,1,2.,24.0,0.,24.0,0.,24.0,0.,24.0
1979-07-12 04:25:22.700 ,6,1,9.,24.0,2.,24.0,0.,24.0,0.,24.0
1979-07-12 04:25:46.700 ,5,1,12.,24.0,0.,24.0,0.,24.0,0.,24.0
1979-07-12 04:26:10.700 ,1,1,6.,24.0,0.,24.0,0.,24.0,0.,24.0
1979-07-12 04:26:34.700 ,2,1,3.,24.0,0.,24.0,0.,24.0,0.,24.0
1979-07-12 04:26:58.700 ,6,1,5.,24.0,1.,24.0,0.,24.0,0.,24.0
1979-07-12 04:27:22.700 ,5,1,18.,24.0,1.,24.0,0.,24.0,0.,24.0
1979-07-12 04:27:46.700 ,1,1,4.,24.0,0.,24.0,0.,24.0,0.,24.0
1979-07-12 04:28:10.700 ,2,1,1.,24.0,1.,24.0,0.,24.0,0.,24.0
1979-07-12 04:28:34.700 ,6,1,8.,24.0,0.,24.0,0.,24.0,0.,24.0
1979-07-12 04:28:58.700 ,5,1,25.,24.0,0.,24.0,0.,24.0,0.,24.0
1979-07-12 04:29:22.700 ,1,1,4.,24.0,0.,24.0,0.,24.0,0.,24.0
1979-07-12 04:29:46.700 ,0,0,2.,24.0,1.,24.0,0.,24.0,0.,24.0
1979-07-12 04:30:10.700 ,0,0,9.,24.0,0.,24.0,0.,24.0,0.,24.0
1979-07-12 04:30:34.700 ,5,1,19.,24.0,0.,24.0,0.,24.0,0.,24.0
1979-07-12 04:30:58.700 ,5,0,4.,24.0,0.,24.0,0.,24.0,0.,24.0
1979-07-12 04:31:22.700 ,4,1,6.,24.0,1.,24.0,0.,24.0,0.,24.0
1979-07-12 04:31:46.700 ,4,0,5.,24.0,0.,24.0,0.,24.0,0.,24.0
1979-07-12 04:32:10.700 ,3,1,6.,24.0,2.,24.0,0.,24.0,0.,24.0
1979-07-12 04:32:34.700 ,3,0,4.,24.0,1.,24.0,0.,24.0,0.,24.0
1979-07-12 04:32:58.700 ,2,1,1.,24.0,1.,24.0,0.,24.0,0.,24.0
1979-07-12 04:33:22.700 ,2,0,1.,24.0,0.,24.0,0.,24.0,0.,24.0
1979-07-12 04:33:46.700 ,1,1,1.,24.0,1.,24.0,0.,24.0,0.,24.0
1979-07-12 04:34:10.700 ,1,0,4.,24.0,1.,24.0,0.,24.0,0.,24.0
1979-07-12 04:34:34.700 ,0,1,5.,24.0,0.,24.0,0.,24.0,0.,24.0
1979-07-12 04:34:58.700 ,0,0,1.,24.0,2.,24.0,0.,24.0,0.,24.0
1979-07-12 04:35:22.700 ,0,1,2.,24.0,0.,24.0,0.,24.0,0.,24.0
1979-07-12 04:35:46.700 ,0,0,5.,24.0,0.,24.0,0.,24.0,0.,24.0
1979-07-12 04:36:10.700 ,1,1,4.,24.0,0.,24.0,0.,24.0,0.,24.0
1979-07-12 04:36:34.700 ,1,0,2.,24.0,3.,24.0,0.,24.0,0.,24.0
1979-07-12 04:36:58.700 ,2,1,6.,24.0,0.,24.0,0.,24.0,0.,24.0
1979-07-12 04:37:22.700 ,2,0,2.,24.0,0.,24.0,0.,24.0,0.,24.0
1979-07-12 04:37:46.700 ,3,1,4.,24.0,0.,24.0,0.,24.0,0.,24.0
1979-07-12 04:38:10.700 ,3,0,2.,24.0,1.,24.0,0.,24.0,0.,24.0
1979-07-12 04:38:34.700 ,4,1,2.,24.0,0.,24.0,0.,24.0,0.,24.0
1979-07-12 04:38:58.700 ,4,0,2.,24.0,0.,24.0,0.,24.0,0.,24.0
1979-07-12 04:39:22.700 ,5,1,3.,24.0,0.,24.0,0.,24.0,0.,24.0
1979-07-12 04:39:46.700 ,5,0,1.,24.0,1.,24.0,0.,24.0,0.,24.0
1979-07-12 04:40:10.700 ,6,1,2.,24.0,0.,24.0,0.,24.0,0.,24.0
1979-07-12 04:40:34.700 ,6,0,2.,24.0,0.,24.0,0.,24.0,0.,24.0
1979-07-12 04:40:58.700 ,7,1,10.,24.0,1.,24.0,0.,24.0,0.,24.0
1979-07-12 04:41:22.700 ,7,0,30.,24.0,0.,24.0,0.,24.0,0.,24.0
1979-07-12 04:41:46.700 ,7,1,27.,24.0,0.,24.0,0.,24.0,0.,24.0
1979-07-12 04:42:10.700 ,7,0,30.,24.0,0.,24.0,0.,24.0,0.,24.0
1979-07-12 04:42:34.700 ,6,1,27.,24.0,2.,24.0,0.,24.0,0.,24.0
1979-07-12 04:42:58.700 ,6,0,4.,24.0,1.,24.0,0.,24.0,0.,24.0
1979-07-12 04:43:22.700 ,5,1,3.,24.0,1.,24.0,0.,24.0,0.,24.0
1979-07-12 04:43:46.700 ,5,0,4.,24.0,0.,24.0,0.,24.0,0.,24.0
1979-07-12 04:44:10.700 ,4,1,3.,24.0,0.,24.0,0.,24.0,0.,24.0
1979-07-12 04:44:34.700 ,4,0,7.,24.0,1.,24.0,0.,24.0,0.,24.0
1979-07-12 04:44:58.700 ,3,1,4.,24.0,0.,24.0,0.,24.0,0.,24.0
1979-07-12 04:45:22.700 ,3,0,1.,24.0,0.,24.0,0.,24.0,0.,24.0
1979-07-12 04:45:46.700 ,2,1,3.,24.0,0.,24.0,0.,24.0,0.,24.0
1979-07-12 04:46:10.700 ,2,0,4.,24.0,0.,24.0,0.,24.0,0.,24.0
1979-07-12 04:46:34.700 ,1,1,5.,24.0,1.,24.0,0.,24.0,0.,24.0
1979-07-12 04:46:58.700 ,1,0,4.,24.0,1.,24.0,0.,24.0,0.,24.0
1979-07-12 04:47:22.700 ,0,1,2.,24.0,0.,24.0,0.,24.0,0.,24.0
1979-07-12 04:47:46.700 ,0,0,1.,24.0,0.,24.0,0.,24.0,0.,24.0
1979-07-12 04:48:10.700 ,0,1,3.,24.0,0.,24.0,0.,24.0,0.,24.0
1979-07-12 04:48:34.700 ,0,0,2.,24.0,1.,24.0,0.,24.0,0.,24.0
1979-07-12 04:48:58.700 ,1,1,0.,24.0,0.,24.0,0.,24.0,0.,24.0
1979-07-12 04:49:22.700 ,1,0,4.,24.0,2.,24.0,0.,24.0,0.,24.0
1979-07-12 04:49:46.700 ,2,1,1.,24.0,1.,24.0,0.,24.0,0.,24.0
1979-07-12 04:50:10.700 ,2,0,1.,24.0,0.,24.0,0.,24.0,0.,24.0
1979-07-12 04:50:34.700 ,3,1,5.,24.0,0.,24.0,0.,24.0,0.,24.0
1979-07-12 04:50:58.700 ,3,0,8.,24.0,0.,24.0,0.,24.0,0.,24.0
1979-07-12 04:51:22.700 ,4,1,6.,24.0,1.,24.0,0.,24.0,0.,24.0
1979-07-12 04:51:46.700 ,4,0,3.,24.0,1.,24.0,0.,24.0,0.,24.0
1979-07-12 04:52:10.700 ,5,1,5.,24.0,1.,24.0,0.,24.0,0.,24.0
1979-07-12 04:52:34.700 ,5,0,3.,24.0,0.,24.0,0.,24.0,0.,24.0
1979-07-12 04:52:58.700 ,6,1,8.,24.0,1.,24.0,0.,24.0,0.,24.0
1979-07-12 04:53:22.700 ,6,0,3.,24.0,1.,24.0,0.,24.0,0.,24.0
1979-07-12 04:53:46.700 ,7,1,7.,24.0,1.,24.0,0.,24.0,0.,24.0
1979-07-12 04:54:10.700 ,7,0,31.,24.0,0.,24.0,0.,24.0,0.,24.0
1979-07-12 04:54:34.700 ,7,1,41.,24.0,0.,24.0,0.,24.0,0.,24.0
1979-07-12 04:54:58.700 ,7,0,37.,24.0,0.,24.0,0.,24.0,0.,24.0
1979-07-12 04:55:22.700 ,6,1,30.,24.0,0.,24.0,0.,24.0,0.,24.0
1979-07-12 04:55:46.700 ,6,0,3.,24.0,0.,24.0,0.,24.0,0.,24.0
1979-07-12 04:56:10.700 ,5,1,6.,24.0,0.,24.0,0.,24.0,0.,24.0
1979-07-12 04:56:34.700 ,5,0,9.,24.0,1.,24.0,0.,24.0,0.,24.0
1979-07-12 04:56:58.700 ,4,1,3.,24.0,2.,24.0,0.,24.0,0.,24.0
1979-07-12 04:57:22.700 ,4,0,4.,24.0,1.,24.0,0.,24.0,0.,24.0
1979-07-12 04:57:46.700 ,3,1,5.,24.0,0.,24.0,0.,24.0,0.,24.0
1979-07-12 04:58:10.700 ,3,0,3.,24.0,1.,24.0,0.,24.0,0.,24.0
1979-07-12 04:58:34.700 ,2,1,6.,24.0,1.,24.0,0.,24.0,0.,24.0
1979-07-12 04:58:58.700 ,2,0,4.,24.0,0.,24.0,0.,24.0,0.,24.0
1979-07-12 04:59:22.700 ,1,1,2.,24.0,0.,24.0,0.,24.0,0.,24.0
1979-07-12 04:59:46.700 ,1,0,5.,24.0,0.,24.0,0.,24.0,0.,24.0
1979-07-12 05:00:10.700 ,0,1,0.,24.0,0.,24.0,0.,24.0,0.,24.0
1979-07-12 05:00:34.700 ,0,0,4.,24.0,0.,24.0,0.,24.0,0.,24.0
1979-07-12 05:00:58.700 ,0,1,2.,24.0,0.,24.0,0.,24.0,0.,24.0
1979-07-12 05:01:22.700 ,0,0,2.,24.0,0.,24.0,0.,24.0,0.,24.0
1979-07-12 05:01:46.700 ,1,1,2.,24.0,0.,24.0,0.,24.0,0.,24.0
1979-07-12 05:02:10.700 ,1,0,1.,24.0,2.,24.0,0.,24.0,0.,24.0
1979-07-12 05:02:34.700 ,2,1,7.,24.0,1.,24.0,0.,24.0,0.,24.0
1979-07-12 05:02:58.700 ,2,0,4.,24.0,0.,24.0,0.,24.0,0.,24.0
1979-07-12 05:03:22.700 ,3,1,5.,24.0,0.,24.0,0.,24.0,0.,24.0
1979-07-12 05:03:46.700 ,3,0,4.,24.0,0.,24.0,0.,24.0,0.,24.0
1979-07-12 05:04:10.700 ,4,1,6.,24.0,0.,24.0,0.,24.0,0.,24.0
1979-07-12 05:04:34.700 ,4,0,5.,24.0,0.,24.0,0.,24.0,0.,24.0
1979-07-12 05:04:58.700 ,5,1,3.,24.0,0.,24.0,0.,24.0,0.,24.0
1979-07-12 05:05:22.700 ,5,0,5.,24.0,1.,24.0,0.,24.0,0.,24.0
1979-07-12 05:05:46.700 ,6,1,5.,24.0,1.,24.0,0.,24.0,0.,24.0
1979-07-12 05:06:10.700 ,6,0,4.,24.0,2.,24.0,0.,24.0,0.,24.0
1979-07-12 05:06:34.700 ,7,0,8.,24.0,0.,24.0,0.,24.0,0.,24.0
1979-07-12 05:06:58.700 ,7,0,32.,24.0,0.,24.0,0.,24.0,0.,24.0
1979-07-12 05:07:22.700 ,5,1,12.,24.0,1.,24.0,0.,24.0,0.,24.0
1979-07-12 05:07:46.700 ,1,1,5.,24.0,2.,24.0,0.,24.0,0.,24.0
1979-07-12 05:08:10.700 ,2,1,4.,24.0,0.,24.0,0.,24.0,0.,24.0
1979-07-12 05:08:34.700 ,6,1,3.,24.0,0.,24.0,0.,24.0,0.,24.0
1979-07-12 05:08:58.700 ,5,1,19.,24.0,0.,24.0,0.,24.0,0.,24.0
1979-07-12 05:09:22.700 ,1,1,4.,24.0,1.,24.0,0.,24.0,0.,24.0
1979-07-12 05:09:46.700 ,2,1,2.,24.0,2.,24.0,0.,24.0,0.,24.0
1979-07-12 05:10:10.700 ,6,1,3.,24.0,2.,24.0,0.,24.0,0.,24.0
1979-07-12 05:10:34.700 ,5,1,16.,24.0,1.,24.0,0.,24.0,0.,24.0
1979-07-12 05:10:58.700 ,1,1,7.,24.0,1.,24.0,0.,24.0,0.,24.0
1979-07-12 05:11:22.700 ,2,1,2.,24.0,0.,24.0,0.,24.0,0.,24.0
1979-07-12 05:11:46.700 ,6,1,3.,24.0,0.,24.0,0.,24.0,0.,24.0
1979-07-12 05:12:10.700 ,5,1,28.,24.0,1.,24.0,0.,24.0,0.,24.0
1979-07-12 05:12:34.700 ,1,1,5.,24.0,3.,24.0,0.,24.0,0.,24.0
1979-07-12 05:12:58.700 ,2,1,1.,24.0,0.,24.0,0.,24.0,0.,24.0
1979-07-12 05:13:22.700 ,6,1,5.,24.0,1.,24.0,0.,24.0,0.,24.0
1979-07-12 05:13:46.700 ,5,1,17.,24.0,0.,24.0,0.,24.0,0.,24.0
1979-07-12 05:14:10.700 ,1,1,4.,24.0,1.,24.0,0.,24.0,0.,24.0
1979-07-12 05:14:34.700 ,2,1,1.,24.0,0.,24.0,0.,24.0,0.,24.0
1979-07-12 05:14:58.700 ,6,1,2.,24.0,1.,24.0,0.,24.0,0.,24.0
1979-07-12 05:15:22.700 ,5,1,16.,24.0,0.,24.0,0.,24.0,0.,24.0
1979-07-12 05:15:46.700 ,1,1,6.,24.0,2.,24.0,0.,24.0,0.,24.0
1979-07-12 05:16:10.700 ,2,1,5.,24.0,0.,24.0,0.,24.0,0.,24.0
1979-07-12 05:16:34.700 ,6,1,5.,24.0,1.,24.0,0.,24.0,0.,24.0
1979-07-12 05:16:58.700 ,5,1,12.,24.0,1.,24.0,0.,24.0,0.,24.0
1979-07-12 05:17:22.700 ,1,1,2.,24.0,0.,24.0,0.,24.0,0.,24.0
1979-07-12 05:17:46.700 ,0,0,4.,24.0,0.,24.0,0.,24.0,0.,24.0
1979-07-12 05:18:10.700 ,0,0,8.,24.0,1.,24.0,0.,24.0,0.,24.0
1979-07-12 05:18:34.700 ,5,1,17.,24.0,0.,24.0,0.,24.0,0.,24.0
1979-07-12 05:18:58.700 ,5,0,2.,24.0,0.,24.0,0.,24.0,0.,24.0
1979-07-12 05:19:22.700 ,4,1,1.,24.0,2.,24.0,0.,24.0,0.,24.0
1979-07-12 05:19:46.700 ,4,0,5.,24.0,1.,24.0,0.,24.0,0.,24.0
1979-07-12 05:20:10.700 ,3,1,3.,24.0,2.,24.0,0.,24.0,0.,24.0
1979-07-12 05:20:34.700 ,3,0,1.,24.0,0.,24.0,0.,24.0,0.,24.0
1979-07-12 05:20:58.700 ,2,1,2.,24.0,1.,24.0,0.,24.0,0.,24.0
1979-07-12 05:21:22.700 ,2,0,3.,24.0,1.,24.0,0.,24.0,0.,24.0
1979-07-12 05:21:46.700 ,1,1,7.,24.0,2.,24.0,0.,24.0,0.,24.0
1979-07-12 05:22:10.700 ,1,0,3.,24.0,1.,24.0,0.,24.0,0.,24.0
1979-07-12 05:22:34.700 ,0,1,2.,24.0,0.,24.0,0.,24.0,0.,24.0
1979-07-12 05:22:58.700 ,0,0,2.,24.0,1.,24.0,0.,24.0,0.,24.0
1979-07-12 05:23:22.700 ,0,1,2.,24.0,0.,24.0,0.,24.0,0.,24.0
1979-07-12 05:23:46.700 ,0,0,4.,24.0,0.,24.0,0.,24.0,0.,24.0
1979-07-12 05:24:10.700 ,1,1,8.,24.0,0.,24.0,0.,24.0,0.,24.0
1979-07-12 05:24:34.700 ,1,0,3.,24.0,1.,24.0,0.,24.0,0.,24.0
1979-07-12 05:24:58.700 ,2,1,4.,24.0,2.,24.0,0.,24.0,0.,24.0
1979-07-12 05:25:22.700 ,2,0,6.,24.0,1.,24.0,0.,24.0,0.,24.0
1979-07-12 05:25:46.700 ,3,1,7.,24.0,2.,24.0,0.,24.0,0.,24.0
1979-07-12 05:26:10.700 ,3,0,3.,24.0,2.,24.0,0.,24.0,0.,24.0
1979-07-12 05:26:34.700 ,4,1,4.,24.0,1.,24.0,0.,24.0,0.,24.0
1979-07-12 05:26:58.700 ,4,0,4.,24.0,0.,24.0,0.,24.0,0.,24.0
1979-07-12 05:27:22.700 ,5,1,1.,24.0,1.,24.0,0.,24.0,0.,24.0
1979-07-12 05:27:46.700 ,5,0,6.,24.0,0.,24.0,0.,24.0,0.,24.0
1979-07-12 05:28:10.700 ,6,1,1.,24.0,1.,24.0,0.,24.0,0.,24.0
1979-07-12 05:28:34.700 ,6,0,2.,24.0,0.,24.0,0.,24.0,0.,24.0
1979-07-12 05:28:58.700 ,7,1,7.,24.0,1.,24.0,0.,24.0,0.,24.0
1979-07-12 05:29:22.700 ,7,0,31.,24.0,0.,24.0,0.,24.0,0.,24.0
1979-07-12 05:29:46.700 ,7,1,28.,24.0,0.,24.0,0.,24.0,0.,24.0
1979-07-12 05:30:10.700 ,7,0,25.,24.0,0.,24.0,0.,24.0,0.,24.0
1979-07-12 05:30:34.700 ,6,1,29.,24.0,0.,24.0,0.,24.0,0.,24.0
1979-07-12 05:30:58.700 ,6,0,3.,24.0,0.,24.0,0.,24.0,0.,24.0
1979-07-12 05:31:22.700 ,5,1,3.,24.0,0.,24.0,0.,24.0,0.,24.0
1979-07-12 05:31:46.700 ,5,0,5.,24.0,0.,24.0,0.,24.0,0.,24.0
1979-07-12 05:32:10.700 ,4,1,5.,24.0,2.,24.0,0.,24.0,0.,24.0
1979-07-12 05:32:34.700 ,4,0,4.,24.0,0.,24.0,0.,24.0,0.,24.0
1979-07-12 05:32:58.700 ,3,1,2.,24.0,0.,24.0,0.,24.0,0.,24.0
1979-07-12 05:33:22.700 ,3,0,1.,24.0,1.,24.0,0.,24.0,0.,24.0
1979-07-12 05:33:46.700 ,2,1,2.,24.0,1.,24.0,0.,24.0,0.,24.0